Regional Weather Roundup
Issued by NWS

Home | Current Version | Previous Version | Graphics & Text | Print | Product List | Glossary On
Versions: 1 2 3 4 5 6 7 8 9 10 11 12 13 14 15 16 17 18 19 20 21 22 23 24 25 26 27 28 29 30 31 32 33 34 35 36 37 38 39 40 41 42 43 44 45 46 47 48 49 50
000
ASUS44 KMEG 191300
RWRTN
TENNESSEE HOURLY STATE WEATHER ROUNDUP
NATIONAL WEATHER SERVICE MEMPHIS TN
700 AM CST SUN FEB 19 2017

TNZ002-004-019-021-049-052-054-088>092-191400-
WEST TENNESSEE

CITY           SKY/WX    TMP DP  RH WIND       PRES   REMARKS
MEMPHIS INTL   PTCLDY    48  47  96 CALM      30.06R
NWS MEMPHIS      N/A     46 N/A N/A MISG        N/A
JACKSON        CLEAR     42  41  96 CALM      30.07R
UNION CITY     CLOUDY   N/A N/A N/A CALM      30.06R VSB 0
PARIS            N/A     41  41 100 CALM      30.06R VSB 0
$$

TNZ008-025-027-028-033-062-065-066-191400-
NORTH MIDDLE TENNESSEE

CITY           SKY/WX    TMP DP  RH WIND       PRES   REMARKS
NASHVILLE      MOCLDY    46  44  93 S5        30.07R FOG
CLARKSVILLE    FOG       40  39  97 SE3       30.07R VSB<1/4
SMYRNA         FOG       44  44 100 CALM      30.09R VSB 1/4
CROSSVILLE     CLOUDY    48  47  96 NW3       30.07R FOG
$$

TNZ061-075-076-078-094-096-097-191400-
SOUTH MIDDLE TENNESSEE

CITY           SKY/WX    TMP DP  RH WIND       PRES   REMARKS
TULLAHOMA      CLOUDY    45  45 100 CALM      30.08R VSB 0
MCMINNVILLE    CLOUDY    48  48 100 CALM      30.08R VSB 1/4
COLUMBIA       CLOUDY   N/A N/A N/A CALM      30.07R VSB 1/2
SHELBYVILLE    CLOUDY    45  45 100 CALM      30.08R VSB 0
$$

TNZ017-018-042-046-047-191400-
NORTHEAST TENNESSEE

CITY           SKY/WX    TMP DP  RH WIND       PRES   REMARKS
TRI CITIES     CLOUDY    48  47  96 CALM      30.08R FOG
$$

TNZ012-013-036-069-073-074-191400-
CENTRAL EAST TENNESSEE

CITY           SKY/WX    TMP DP  RH WIND       PRES   REMARKS
KNOXVILLE      FOG       50  48  93 CALM      30.07R VSB 3/4
OAK RIDGE      CLOUDY    50  48  93 CALM      30.08R FOG
GATLINBURG     CLOUDY    48  46  93 CALM      30.07R
$$

TNZ083-085-099-191400-
SOUTHEAST TENNESSEE

CITY           SKY/WX    TMP DP  RH WIND       PRES   REMARKS
CHATTANOOGA    DRZL/FOG  51  49  92 SW3       30.06R VSB 1
$$

SKY/WX REPORTED AS FAIR MEANS FEW OR NO CLOUDS BELOW
12 THOUSAND FEET.




USA.gov is the U.S. government's official web portal to all federal, state and local government web resources and services.